| time (UTC) | temp F | wind direction | speed MPH | gust MPH | rain 1hr in | rain 24hr in | rain mn in | humidity % | barometer mb |
| 20260509004557 | 57 | 0 | 0.0 | 0.0 | 0.00 | 0.00 | 0.00 | 92 | 1015.5 |
| 20260509003050 | 57 | 0 | 0.0 | 0.0 | 0.00 | 0.00 | 0.00 | 91 | 1015.5 |
| 20260509001550 | 58 | 0 | 0.0 | 0.0 | 0.00 | 0.00 | 0.00 | 89 | 1015.6 |
| 20260509000047 | 59 | 0 | 0.0 | 0.0 | 0.00 | 0.00 | 0.00 | 88 | 1015.2 |
| 20260508234551 | 60 | 0 | 0.0 | 0.0 | 0.00 | 0.00 | 0.00 | 89 | 1015.2 |
| 20260508233053 | 61 | 0 | 0.0 | 0.0 | 0.00 | 0.00 | 0.00 | 87 | 1015.3 |
| 20260508231546 | 62 | 0 | 0.0 | 0.0 | 0.00 | 0.00 | 0.00 | 85 | 1015.2 |
| 20260508230122 | 63 | 0 | 0.0 | 0.0 | 0.00 | 0.00 | 0.00 | 85 | 1015.2 |
| 20260508224553 | 63 | 0 | 0.0 | 0.0 | 0.00 | 0.00 | 0.00 | 82 | 1015.4 |
| 20260508223049 | 64 | 0 | 0.0 | 0.0 | 0.00 | 0.00 | 0.00 | 81 | 1015.6 |
| 20260508221554 | 65 | 0 | 0.0 | 0.0 | 0.00 | 0.00 | 0.00 | 78 | 1015.4 |
| 20260508220117 | 65 | 0 | 0.0 | 0.0 | 0.00 | 0.00 | 0.00 | 76 | 1015.5 |
| 20260508214552 | 66 | 0 | 0.0 | 0.0 | 0.00 | 0.00 | 0.00 | 74 | 1015.3 |
| 20260508213053 | 66 | 0 | 0.0 | 0.0 | 0.00 | 0.00 | 0.00 | 66 | 1015.3 |
| 20260508211551 | 67 | 0 | 0.0 | 0.0 | 0.00 | 0.00 | 0.00 | 73 | 1015.4 |
| 20260508210051 | 67 | 0 | 0.0 | 0.0 | 0.00 | 0.00 | 0.00 | 63 | 1015.3 |
| 20260508204601 | 68 | 0 | 0.0 | 1.0 | 0.00 | 0.00 | 0.00 | 63 | 1015.5 |
| 20260508203051 | 69 | 0 | 0.0 | 0.0 | 0.00 | 0.00 | 0.00 | 61 | 1015.7 |
| 20260508201550 | 69 | 0 | 0.0 | 0.0 | 0.00 | 0.00 | 0.00 | 60 | 1015.7 |
| 20260508200050 | 68 | 0 | 0.0 | 1.0 | 0.00 | 0.00 | 0.00 | 59 | 1015.6 |
| 20260508194549 | 69 | 0 | 0.0 | 1.0 | 0.00 | 0.00 | 0.00 | 55 | 1015.8 |
| 20260508193051 | 69 | 0 | 0.0 | 1.0 | 0.00 | 0.00 | 0.00 | 61 | 1016.1 |
| 20260508191555 | 70 | 0 | 0.0 | 1.0 | 0.00 | 0.00 | 0.00 | 52 | 1016.5 |
| 20260508190105 | 70 | 154 | 0.0 | 0.0 | 0.00 | 0.00 | 0.00 | 53 | 1016.7 |
| 20260508184552 | 70 | 190 | 0.0 | 1.0 | 0.00 | 0.00 | 0.00 | 54 | 1016.6 |
| 20260508183046 | 70 | 0 | 0.0 | 3.0 | 0.00 | 0.00 | 0.00 | 54 | 1017.0 |
| 20260508181605 | 69 | 192 | 0.0 | 4.0 | 0.00 | 0.00 | 0.00 | 53 | 1017.2 |
| 20260508180101 | 70 | 174 | 1.0 | 5.0 | 0.00 | 0.00 | 0.00 | 52 | 1017.4 |
| 20260508174602 | 69 | 0 | 0.0 | 3.0 | 0.00 | 0.00 | 0.00 | 56 | 1017.3 |
| 20260508173050 | 69 | 96 | 0.0 | 4.0 | 0.00 | 0.00 | 0.00 | 52 | 1017.7 |
| 20260508171549 | 69 | 133 | 0.0 | 2.0 | 0.00 | 0.00 | 0.00 | 52 | 1017.9 |
| 20260508170049 | 68 | 143 | 0.0 | 2.0 | 0.00 | 0.00 | 0.00 | 55 | 1018.1 |
| 20260508164549 | 68 | 0 | 0.0 | 1.0 | 0.00 | 0.00 | 0.00 | 53 | 1018.3 |
| 20260508163048 | 67 | 274 | 1.0 | 3.0 | 0.00 | 0.00 | 0.00 | 55 | 1018.5 |
| 20260508161549 | 67 | 139 | 0.0 | 4.0 | 0.00 | 0.00 | 0.00 | 59 | 1019.0 |
| 20260508160046 | 67 | 0 | 0.0 | 4.0 | 0.00 | 0.00 | 0.00 | 61 | 1019.1 |
| 20260508154550 | 66 | 137 | 0.0 | 2.0 | 0.00 | 0.00 | 0.00 | 60 | 1019.2 |
| 20260508153054 | 65 | 229 | 1.0 | 5.0 | 0.00 | 0.00 | 0.00 | 60 | 1019.2 |
| 20260508151549 | 65 | 209 | 1.0 | 3.0 | 0.00 | 0.00 | 0.00 | 58 | 1019.4 |
| 20260508150049 | 65 | 0 | 1.0 | 3.0 | 0.00 | 0.00 | 0.00 | 60 | 1019.5 |
| 20260508144553 | 65 | 134 | 0.0 | 2.0 | 0.00 | 0.00 | 0.00 | 62 | 1019.5 |
| 20260508143054 | 64 | 205 | 0.0 | 3.0 | 0.00 | 0.00 | 0.00 | 60 | 1019.5 |
| 20260508141556 | 63 | 151 | 0.0 | 3.0 | 0.00 | 0.00 | 0.00 | 65 | 1019.4 |
| 20260508140051 | 62 | 198 | 0.0 | 1.0 | 0.00 | 0.00 | 0.00 | 72 | 1019.4 |
| 20260508134558 | 60 | 0 | 0.0 | 0.0 | 0.00 | 0.00 | 0.00 | 89 | 1019.4 |
| 20260508133048 | 57 | 0 | 0.0 | 0.0 | 0.00 | 0.00 | 0.00 | 92 | 1019.4 |
| 20260508131548 | 54 | 0 | 0.0 | 0.0 | 0.00 | 0.00 | 0.00 | 100 | 1019.6 |
| 20260508130055 | 52 | 0 | 0.0 | 0.0 | 0.00 | 0.00 | 0.00 | 100 | 1019.8 |
| 20260508124550 | 51 | 0 | 0.0 | 0.0 | 0.00 | 0.05 | 0.00 | 100 | 1019.7 |
| 20260508123105 | 49 | 0 | 0.0 | 0.0 | 0.00 | 0.05 | 0.00 | 100 | 1019.7 |
| 20260508121556 | 47 | 0 | 0.0 | 0.0 | 0.00 | 0.05 | 0.00 | 100 | 1019.4 |
| 20260508120055 | 46 | 0 | 0.0 | 0.0 | 0.00 | 0.05 | 0.00 | 100 | 1019.1 |
| 20260508114555 | 45 | 0 | 0.0 | 0.0 | 0.00 | 0.18 | 0.00 | 100 | 1018.7 |
| 20260508113101 | 44 | 0 | 0.0 | 0.0 | 0.00 | 0.18 | 0.00 | 100 | 1018.4 |
| 20260508111556 | 43 | 0 | 0.0 | 0.0 | 0.00 | 0.18 | 0.00 | 100 | 1018.3 |
| 20260508110053 | 43 | 0 | 0.0 | 0.0 | 0.00 | 0.18 | 0.00 | 99 | 1018.1 |
| 20260508104555 | 43 | 0 | 0.0 | 0.0 | 0.00 | 0.47 | 0.00 | 99 | 1017.8 |
| 20260508103053 | 43 | 0 | 0.0 | 0.0 | 0.00 | 0.47 | 0.00 | 99 | 1017.5 |
| 20260508101558 | 44 | 0 | 0.0 | 0.0 | 0.00 | 0.47 | 0.00 | 99 | 1017.2 |
| 20260508100058 | 44 | 0 | 0.0 | 0.0 | 0.00 | 0.47 | 0.00 | 99 | 1017.0 |
| 20260508094613 | 44 | 0 | 0.0 | 0.0 | 0.00 | 0.66 | 0.00 | 99 | 1017.0 |
| 20260508093058 | 44 | 167 | 0.0 | 0.0 | 0.00 | 0.66 | 0.00 | 99 | 1016.9 |
| 20260508091555 | 44 | 0 | 0.0 | 0.0 | 0.00 | 0.66 | 0.00 | 99 | 1017.0 |
| 20260508090057 | 44 | 0 | 0.0 | 0.0 | 0.00 | 0.66 | 0.00 | 99 | 1016.8 |
| 20260508084555 | 45 | 0 | 0.0 | 0.0 | 0.00 | 0.68 | 0.00 | 99 | 1016.7 |
| 20260508083052 | 45 | 0 | 0.0 | 0.0 | 0.00 | 0.68 | 0.00 | 99 | 1016.7 |
| 20260508081616 | 45 | 0 | 0.0 | 0.0 | 0.00 | 0.68 | 0.00 | 99 | 1016.6 |
| 20260508080051 | 45 | 0 | 0.0 | 0.0 | 0.00 | 0.68 | 0.00 | 99 | 1016.5 |
| 20260508074550 | 46 | 0 | 0.0 | 0.0 | 0.00 | 0.94 | 0.00 | 99 | 1016.6 |
| 20260508073050 | 46 | 0 | 0.0 | 0.0 | 0.00 | 0.94 | 0.00 | 99 | 1016.7 |
| 20260508071555 | 46 | 0 | 0.0 | 0.0 | 0.00 | 0.94 | 0.00 | 99 | 1016.7 |
| 20260508070054 | 46 | 0 | 0.0 | 0.0 | 0.00 | 0.94 | 0.00 | 99 | 1016.8 |
| 20260508064550 | 46 | 0 | 0.0 | 0.0 | 0.00 | 1.05 | 0.00 | 99 | 1017.0 |
| 20260508063054 | 47 | 0 | 0.0 | 0.0 | 0.00 | 1.05 | 0.00 | 99 | 1017.0 |
| 20260508061553 | 47 | 0 | 0.0 | 0.0 | 0.00 | 1.05 | 0.00 | 99 | 1017.2 |
| 20260508060054 | 47 | 0 | 0.0 | 0.0 | 0.00 | 1.05 | 0.00 | 99 | 1017.1 |
| 20260508054551 | 48 | 0 | 0.0 | 0.0 | 0.00 | 1.05 | 0.00 | 99 | 1017.2 |
| 20260508053054 | 48 | 0 | 0.0 | 0.0 | 0.00 | 1.05 | 0.00 | 99 | 1017.0 |
| 20260508051552 | 49 | 0 | 0.0 | 0.0 | 0.00 | 1.05 | 0.00 | 99 | 1017.1 |
| 20260508050051 | 49 | 0 | 0.0 | 0.0 | 0.00 | 1.05 | 0.00 | 99 | 1017.3 |
| 20260508044553 | 49 | 0 | 0.0 | 0.0 | 0.00 | 1.11 | 0.00 | 99 | 1017.3 |
| 20260508043053 | 50 | 0 | 0.0 | 0.0 | 0.00 | 1.11 | 0.00 | 99 | 1017.0 |
| 20260508041554 | 50 | 0 | 0.0 | 0.0 | 0.00 | 1.11 | 0.00 | 98 | 1017.0 |
| 20260508040058 | 50 | 0 | 0.0 | 0.0 | 0.00 | 1.11 | 0.00 | 98 | 1016.9 |
| 20260508034552 | 50 | 0 | 0.0 | 0.0 | 0.00 | 1.11 | 1.11 | 98 | 1016.8 |
| 20260508033051 | 51 | 0 | 0.0 | 0.0 | 0.00 | 1.11 | 1.11 | 98 | 1016.9 |
| 20260508031548 | 51 | 0 | 0.0 | 0.0 | 0.00 | 1.11 | 1.11 | 98 | 1016.8 |
| 20260508030051 | 52 | 0 | 0.0 | 0.0 | 0.00 | 1.11 | 1.11 | 98 | 1016.5 |
| 20260508024554 | 52 | 0 | 0.0 | 0.0 | 0.00 | 1.22 | 1.11 | 98 | 1016.8 |
| 20260508023051 | 53 | 0 | 0.0 | 0.0 | 0.00 | 1.22 | 1.11 | 98 | 1016.7 |
| 20260508021556 | 53 | 0 | 0.0 | 0.0 | 0.00 | 1.22 | 1.11 | 98 | 1016.6 |
| 20260508020051 | 54 | 0 | 0.0 | 0.0 | 0.00 | 1.22 | 1.11 | 97 | 1016.5 |
| 20260508014553 | 54 | 0 | 0.0 | 0.0 | 0.00 | 1.31 | 1.11 | 97 | 1016.1 |
| 20260508013050 | 55 | 0 | 0.0 | 0.0 | 0.00 | 1.31 | 1.11 | 97 | 1015.9 |
| 20260508011551 | 55 | 0 | 0.0 | 0.0 | 0.00 | 1.31 | 1.11 | 97 | 1015.8 |
| 20260508010054 | 56 | 0 | 0.0 | 0.0 | 0.00 | 1.31 | 1.11 | 96 | 1015.7 |